SPACEBEE-71 (48633 NORAD) Tracking and Keplerian Element Data

This shows tracking and keplerian element data for the satellite.

Feedback or suggestion? Click here.




ElementValue
Catalog48633
NameSPACEBEE-71
Epoch Orbit2904
Epoch Day214.62133854
Epoch Year2021
RAAN272.3177
Inclination97.254
Eccentricity0.0014527
Argument of Perigee293.7577
Mean Anonmoly66.2131
Mean Motion15.14727105
Decay Rate2.423E-05
L11 48633U 21006EZ 21214.62133854 .00002423 00000-0 13389-3 0 9993
L22 48633 97.2540 272.3177 0014527 293.7577 66.2131 15.14727105 29048

Live tracking and technical data element details for SPACEBEE-71 (NORAD 48633). SPACEBEE-71 can be tracked NOW for your location showing map with azimuth and elevation plus other details from your city location.

Track the satellite on the map from your city or location and see movement details for azimuth, elevation, latitude, longitude, range, height, and movement on the map or in text.







IsCatalogInMostPopularTable: catalog: 48633, numindb: 18
Update: records affected: 1



GetName: 48633 SPACEBEE-71

Hit Count: updated at: Tue, 03 Aug 2021 21:48:31 GMT